Satellite: ASTRA 1B
Catalog number: 21139
Epoch time:      102364.00000000
Element set:     156 
Inclination:        0.0122 deg
RA of node:       319.8851 deg
Eccentricity:    0.0002995
Arg of perigee:    65.1991 deg
Mean anomaly:      92.3752 deg
Mean motion:    1.00273184 rev/day
Decay rate:    1.2799E-006 rev/day^2
Epoch rev:            3168
Checksum:              255

Satellite: METEOSAT 5 (MO
Catalog number: 21140
Epoch time:      103001.79588238
Element set:     659 
Inclination:        5.5239 deg
RA of node:        70.2571 deg
Eccentricity:    0.0001079
Arg of perigee:   154.6659 deg
Mean anomaly:     225.7305 deg
Mean motion:    1.00278351 rev/day
Decay rate:    1.3999E-007 rev/day^2
Epoch rev:            4557
Checksum:              307

Satellite: NOAA 12
Catalog number: 21263
Epoch time:      103007.91813835
Element set:     923 
Inclination:       98.6212 deg
RA of node:       358.2631 deg
Eccentricity:    0.0013132
Arg of perigee:   139.5325 deg
Mean anomaly:     220.6835 deg
Mean motion:   14.25048549 rev/day
Decay rate:    2.8300E-006 rev/day^2
Epoch rev:           60528
Checksum:              289

Satellite: OSCAR 22 (UoSA
Catalog number: 21575
Epoch time:      103008.20903095
Element set:     695 
Inclination:       98.1363 deg
RA of node:         2.4291 deg
Eccentricity:    0.0006343
Arg of perigee:   258.2189 deg
Mean anomaly:     101.8287 deg
Mean motion:   14.39121008 rev/day
Decay rate:    2.2100E-006 rev/day^2
Epoch rev:           60233
Checksum:              384

Satellite: METEOR 3-5
Catalog number: 21655
Epoch time:      103006.90227719
Element set:     520 
Inclination:       82.5565 deg
RA of node:        69.0149 deg
Eccentricity:    0.0012749
Arg of perigee:   309.5268 deg
Mean anomaly:      50.4727 deg
Mean motion:   13.16977647 rev/day
Decay rate:    5.1000E-007 rev/day^2
Epoch rev:           54786
Checksum:              324

Satellite: UARS
Catalog number: 21701
Epoch time:      103008.38701652
Element set:     794 
Inclination:       56.9783 deg
RA of node:       198.7242 deg
Eccentricity:    0.0006433
Arg of perigee:   115.1263 deg
Mean anomaly:     245.0454 deg
Mean motion:   15.02758323 rev/day
Decay rate:    7.2900E-006 rev/day^2
Epoch rev:           61952
Checksum:              296

Satellite: EUTELSAT 2-F3
Catalog number: 21803
Epoch time:      103006.19014339
Element set:     505 
Inclination:        2.4886 deg
RA of node:        89.5392 deg
Eccentricity:    0.0002503
Arg of perigee:   211.7786 deg
Mean anomaly:     253.8540 deg
Mean motion:    1.00272186 rev/day
Decay rate:    1.2699E-006 rev/day^2
Epoch rev:            3656
Checksum:              292

Satellite: INMARSAT 2-F3
Catalog number: 21814
Epoch time:      103008.31557811
Element set:     595 
Inclination:        1.6652 deg
RA of node:        56.7893 deg
Eccentricity:    0.0002148
Arg of perigee:   248.3005 deg
Mean anomaly:     133.9008 deg
Mean motion:    1.00270068 rev/day
Decay rate:    1.1700E-006 rev/day^2
Epoch rev:            4048
Checksum:              266

Satellite: INMARSAT 2-F4
Catalog number: 21940
Epoch time:      103002.32444389
Element set:     561 
Inclination:        2.3599 deg
RA of node:        18.4893 deg
Eccentricity:    0.0002289
Arg of perigee:   249.2273 deg
Mean anomaly:      59.5600 deg
Mean motion:    1.00266746 rev/day
Decay rate:   -3.5200E-006 rev/day^2
Epoch rev:            3920
Checksum:              285

Satellite: EUTELSAT 2-F4
Catalog number: 22028
Epoch time:      103006.86560186
Element set:     312 
Inclination:        1.6103 deg
RA of node:        93.0478 deg
Eccentricity:    0.0005535
Arg of perigee:   203.0748 deg
Mean anomaly:     109.1620 deg
Mean motion:    1.00271759 rev/day
Decay rate:   -9.8999E-007 rev/day^2
Epoch rev:            3134
Checksum:              283

Satellite: OSCAR 23 (KITS
Catalog number: 22077
Epoch time:      103006.96411343
Element set:     160 
Inclination:       66.0858 deg
RA of node:       214.9490 deg
Eccentricity:    0.0014786
Arg of perigee:   283.9569 deg
Mean anomaly:      75.9805 deg
Mean motion:   12.86407362 rev/day
Decay rate:   -3.7000E-007 rev/day^2
Epoch rev:           48882
Checksum:              330

Satellite: ASTRA 1C
Catalog number: 22653
Epoch time:      102364.00000000
Element set:     782 
Inclination:        0.0122 deg
RA of node:       319.8851 deg
Eccentricity:    0.0002995
Arg of perigee:    65.1991 deg
Mean anomaly:      92.3588 deg
Mean motion:    1.00273184 rev/day
Decay rate:    1.2799E-006 rev/day^2
Epoch rev:            3038
Checksum:              265

Satellite: METEOR 2-21
Catalog number: 22782
Epoch time:      103007.80626017
Element set:     486 
Inclination:       82.5470 deg
RA of node:       248.0207 deg
Eccentricity:    0.0023716
Arg of perigee:   102.8247 deg
Mean anomaly:     257.5575 deg
Mean motion:   13.83528125 rev/day
Decay rate:    1.9300E-006 rev/day^2
Epoch rev:           47231
Checksum:              295

Satellite: KITSAT B
Catalog number: 22825
Epoch time:      103007.52902495
Element set:     456 
Inclination:       98.2786 deg
RA of node:        39.3619 deg
Eccentricity:    0.0009164
Arg of perigee:    29.3575 deg
Mean anomaly:     330.8123 deg
Mean motion:   14.28926222 rev/day
Decay rate:    1.1800E-006 rev/day^2
Epoch rev:           48387
Checksum:              315

Satellite: POSAT 1
Catalog number: 22826
Epoch time:      103007.70585934
Element set:     294 
Inclination:       98.2807 deg
RA of node:        40.6252 deg
Eccentricity:    0.0009711
Arg of perigee:    26.7910 deg
Mean anomaly:     333.3772 deg
Mean motion:   14.29147660 rev/day
Decay rate:    1.3100E-006 rev/day^2
Epoch rev:           48394
Checksum:              300

Satellite: ITAMSAT
Catalog number: 22828
Epoch time:      103008.11618714
Element set:     396 
Inclination:       98.2750 deg
RA of node:        41.2787 deg
Eccentricity:    0.0010554
Arg of perigee:     5.5370 deg
Mean anomaly:     354.5924 deg
Mean motion:   14.29492351 rev/day
Decay rate:    9.0999E-007 rev/day^2
Epoch rev:           45220
Checksum:              311

Satellite: EYESAT A
Catalog number: 22829
Epoch time:      103008.55270031
Element set:     420 
Inclination:       98.2778 deg
RA of node:        42.2773 deg
Eccentricity:    0.0010145
Arg of perigee:     5.0739 deg
Mean anomaly:     355.0552 deg
Mean motion:   14.29744324 rev/day
Decay rate:    1.8099E-006 rev/day^2
Epoch rev:           48419
Checksum:              296

Satellite: METEOSAT 6
Catalog number: 22912
Epoch time:      103006.83689237
Element set:     626 
Inclination:        2.5742 deg
RA of node:        82.6174 deg
Eccentricity:    0.0000817
Arg of perigee:   165.8251 deg
Mean anomaly:     168.1248 deg
Mean motion:    1.00268814 rev/day
Decay rate:    6.1999E-007 rev/day^2
Epoch rev:            3186
Checksum:              313

Satellite: GOES 8
Catalog number: 23051
Epoch time:      103008.44018573
Element set:     551 
Inclination:        0.1980 deg
RA of node:       106.8318 deg
Eccentricity:    0.0002262
Arg of perigee:   192.3312 deg
Mean anomaly:     251.6963 deg
Mean motion:    1.00261049 rev/day
Decay rate:   -2.4200E-006 rev/day^2
Epoch rev:            3939
Checksum:              361

Satellite: ASTRA 1D
Catalog number: 23331
Epoch time:      103006.84955793
Element set:     800 
Inclination:        0.0561 deg
RA of node:       203.1203 deg
Eccentricity:    0.0002092
Arg of perigee:    79.8724 deg
Mean anomaly:     153.0433 deg
Mean motion:    1.00274427 rev/day
Decay rate:    1.4099E-006 rev/day^2
Epoch rev:            3044
Checksum:              248

Satellite: RADIO ROSTO
Catalog number: 23439
Epoch time:      103007.69700683
Element set:     673 
Inclination:       64.8150 deg
RA of node:       109.1913 deg
Eccentricity:    0.0148116
Arg of perigee:   123.4548 deg
Mean anomaly:     238.0525 deg
Mean motion:   11.27547594 rev/day
Decay rate:   -8.9000E-007 rev/day^2
Epoch rev:           33087
Checksum:              305

Satellite: NOAA 14
Catalog number: 23455
Epoch time:      103007.84612058
Element set:     477 
Inclination:       99.1877 deg
RA of node:        25.3157 deg
Eccentricity:    0.0009277
Arg of perigee:   351.6034 deg
Mean anomaly:       8.4980 deg
Mean motion:   14.13280013 rev/day
Decay rate:    1.5199E-006 rev/day^2
Epoch rev:           41358
Checksum:              311

Satellite: HIMAWARI 5 (GM
Catalog number: 23522
Epoch time:      103007.14832314
Element set:     42 
Inclination:        1.6521 deg
RA of node:        82.9544 deg
Eccentricity:    0.0000976
Arg of perigee:    97.7843 deg
Mean anomaly:     119.1970 deg
Mean motion:    1.00272689 rev/day
Decay rate:   -2.7799E-006 rev/day^2
Epoch rev:            2846
Checksum:              307

Satellite: HOT BIRD 1
Catalog number: 23537
Epoch time:      102364.09542247
Element set:     531 
Inclination:        0.1178 deg
RA of node:        62.3444 deg
Eccentricity:    0.0060331
Arg of perigee:   260.0229 deg
Mean anomaly:     182.7219 deg
Mean motion:    1.00272908 rev/day
Decay rate:    9.0999E-007 rev/day^2
Epoch rev:            2846
Checksum:              282

Satellite: GOES 9
Catalog number: 23581
Epoch time:      103006.26713892
Element set:     460 
Inclination:        0.3840 deg
RA of node:       278.1047 deg
Eccentricity:    0.0008379
Arg of perigee:   225.0711 deg
Mean anomaly:     297.2126 deg
Mean motion:    1.00030890 rev/day
Decay rate:    4.4999E-007 rev/day^2
Epoch rev:            2793
Checksum:              297

